Regional Weather Roundup
Issued by NWS

Home | Current Version | Previous Version | Graphics & Text | Print | Product List | Glossary On
Versions: 1 2 3 4 5 6 7 8 9 10 11 12 13 14 15 16 17 18 19 20 21 22 23 24 25 26 27 28 29 30 31 32 33 34 35 36 37 38 39 40 41 42 43 44 45 46 47 48 49 50
000
ASUS43 KFSD 281002
RWRSD

WEATHER ROUNDUP FOR SOUTH DAKOTA
NATIONAL WEATHER SERVICE SIOUX FALLS SD
500 AM CDT FRI APR 28 2017

NOTE: "FAIR" INDICATES FEW OR NO CLOUDS BELOW 12,000 FEET WITH NO
SIGNIFICANT WEATHER AND/OR OBSTRUCTIONS TO VISIBILITY.


SDZ001>005-009-010-012>017-281100-
NORTHWEST AND NORTH CENTRAL SOUTH DAKOTA

CITY           SKY/WX    TMP DP  RH WIND       PRES   REMARKS
BUFFALO          N/A     32  26  78 E9        29.77R WCI  24
FAITH            N/A     32  27  81 E13       29.82R WCI  22
MOBRIDGE       CLOUDY    34  25  69 E12       29.85R WCI  25
$$

SDZ012>016-024>037-041>051-057-063-072>074-281100-
SOUTHWEST AND SOUTH CENTRAL SOUTH DAKOTA

CITY           SKY/WX    TMP DP  RH WIND       PRES   REMARKS
RAPID CTY ARPT CLOUDY    37  31  78 N8        29.78R
PIERRE         CLOUDY    27  23  85 NE6       29.82R WCI  20
CUSTER         LGT SNOW  29  26  89 NE17      29.69R VSB 3/4 WCI  17
ELLSWORTH AFB  CLOUDY    37  32  82 NE12      29.78R
PHILIP         MOCLDY    33  30  88 NE10      29.80R WCI  25
PINE RIDGE     LGT RAIN  38  37  97 E16       29.70R
SPEARFISH      MIX PCPN  34  34 100 E10       29.77R WCI  26
WINNER         CLOUDY    36  30  79 E8        29.80R
$$

SDZ004>011-016>023-039-040-281100-
NORTHEAST SOUTH DAKOTA

CITY           SKY/WX    TMP DP  RH WIND       PRES   REMARKS
ABERDEEN       CLEAR     28  24  85 NE7       29.90R WCI  21
WATERTOWN      CLEAR     23  22  96 N7        29.86S WCI  15
BROOKINGS      CLEAR     24  23  96 CALM      29.85S
SISSETON         N/A     29  26  89 NW8       29.89R WCI  21
$$

SDZ017-020-022-023-036>040-048>070-281100-
SOUTHEAST SOUTH DAKOTA

CITY           SKY/WX    TMP DP  RH WIND       PRES   REMARKS
SIOUX FALLS    CLEAR     26  25  96 N6        29.85R WCI  19
HURON          CLOUDY    27  24  89 NE5       29.86R WCI  22
CHAMBERLAIN    CLOUDY    32  30  90 E5        29.84R WCI  28
MITCHELL       CLOUDY    29  26  89 CALM      29.86R
YANKTON        CLOUDY    30  27  86 NE5       29.83S WCI  25
$$

ABBREVIATIONS USED IN REMARKS
   TC - TEMPERATURE IN CELSIUS
  WCI - WIND CHILL INDEX
   HX - HEAT INDEX
  VSB - VISIBILITY





USA.gov is the U.S. government's official web portal to all federal, state and local government web resources and services.